Location: Beadle
(51.4667°N, 109.0000°W)
Time: 18:26:56
(UTC+00:00)

O/OREOS (USA 219) - Pass Details

Date: 04 July 2022
Orbit: 621 x 646 km, 72.0° (Epoch: 22 May)

Event Time Altitude Azimuth Distance (km) Brightness Sun altitude
Rises 08:18:21 0° 318° (NW) 2,967 ? -14.6°
Reaches altitude 10° 08:21:30 10° 295° (WNW) 2,053 ? -14.5°
Maximum altitude 08:24:05 15° 261° (W) 1,739 ? -14.4°
Enters shadow 08:25:32 13° 240° (WSW) 1,841 ? -14.3°
